This is the latest recevied weather packets stored in our database for station/object N2PPN. If no packets are shown the sender has not sent any weather packets the latest 10 day(s).
| Time | Temp. | Humidity | Pressure | Rain* | Wind** | Luminosity | Snow |
|---|---|---|---|---|---|---|---|
| 1777621722 | 8.33° C | 69% | 1014 hPa | 0 mm | - | 0 W/m² | - |
| 1777621419 | 8.89° C | 68% | 1013.8 hPa | 0 mm | - | 0 W/m² | - |
| 1777621115 | 8.89° C | 69% | 1013.7 hPa | 0 mm | - | 0 W/m² | - |
| 1777620812 | 8.89° C | 68% | 1013.9 hPa | 0 mm | - | 0 W/m² | - |
| 1777620507 | 8.89° C | 68% | 1014 hPa | 0 mm | - | 0 W/m² | - |
| 1777620205 | 8.89° C | 67% | 1013.7 hPa | 0 mm | - | 0 W/m² | - |
| 1777619902 | 8.89° C | 66% | 1013.7 hPa | 0 mm | - | 0 W/m² | - |
| 1777619597 | 8.89° C | 67% | 1013.8 hPa | 0 mm | - | 0 W/m² | - |
| 1777619292 | 8.89° C | 70% | 1013.8 hPa | 0 mm | - | 0 W/m² | - |
| 1777618992 | 8.89° C | 68% | 1013.7 hPa | 0 mm | - | 0 W/m² | - |
| 1777618687 | 9.44° C | 67% | 1013.4 hPa | 0 mm | - | 0 W/m² | - |
| 1777618382 | 9.44° C | 67% | 1013.5 hPa | 0 mm | - | 0 W/m² | - |
| 1777618080 | 9.44° C | 66% | 1013.4 hPa | 0 mm | - | 0 W/m² | - |
| 1777617775 | 10° C | 65% | 1013.5 hPa | 0 mm | - | 0 W/m² | - |
| 1777617470 | 10° C | 64% | 1013.6 hPa | 0 mm | - | 0 W/m² | - |
| 1777617168 | 10° C | 66% | 1013.4 hPa | 0 mm | - | 0 W/m² | - |
| 1777616864 | 10° C | 67% | 1013.4 hPa | 0 mm | - | 0 W/m² | - |
| 1777616559 | 9.44° C | 69% | 1013.5 hPa | 0 mm | - | 0 W/m² | - |
| 1777616255 | 9.44° C | 70% | 1013.7 hPa | 0 mm | - | 0 W/m² | - |
| 1777615953 | 9.44° C | 69% | 1013.5 hPa | 0 mm | - | 0 W/m² | - |
| 1777615649 | 9.44° C | 70% | 1013.6 hPa | 0 mm | - | 0 W/m² | - |
| 1777615346 | 10° C | 69% | 1013.5 hPa | 0 mm | - | 0 W/m² | - |
| 1777615044 | 10° C | 69% | 1013.4 hPa | 0 mm | - | 0 W/m² | - |
| 1777614741 | 10° C | 70% | 1013.4 hPa | 0 mm | - | 0 W/m² | - |
| 1777614436 | 10° C | 70% | 1013.3 hPa | 0 mm | - | 0 W/m² | - |
* Rain latest hour (hover to see other rain measurements)
** Current wind speed in m/s (hover to see current wind gust speed)